COSMOS 1275 DEB, 12766

Orbit data source: Space-Track

COSMOS 1275 DEB, 12766 is space debris in LEO originally from a launch on Thu, 04 Jun 1981 UTC launched from the Plesetsk Missile And Space Complex (PKMTR). Debris objects in space refer to the collection of defunct objects orbiting the Earth. Examples of debris include non-operational satellites, rocket bodies, and fragments generated from explosions, collisions, or faulty payload assembly.

Loading next visibility...
Identifier
12766, 1981-053DK
Orbit
LEO
Country
Flag of CISCIS
Related business
Manufacturer
Unknown
Mission
Spacecraft
Bus & Motor
Unknown
Mass
Unknown
Launch date (UTC)
1981-06-04 (45 years ago)
Launch vehicle
Unknown
Launch site
Plesetsk Missile And Space Complex (PKMTR)
Object type
Payload
Rocket body
Debris
Shape & HBR
Unknown shape, 0.1 m
Radar Cross Section
Small (<0.1 m²)

Expand to show TLE details & history
Last TLE update: 15 hours ago

TLE from 15 hours ago
0 COSMOS 1275 DEB
1 12766U 81053DK  26119.54623058  .00000826  00000-0  88559-3 0  9995
2 12766  82.9475 154.2722 0100594  58.0134  67.6149 13.70327189225184
Epoch: 2026-04-29T13:06Z
TLE epoch observation values (Epoch: 2026-04-29T13:06:34.322Z)
Latitude
52.82075°
Longitude
-89.21469°
Altitude
979.374 km
Speed
7.381 km/s
True Right ascension
21h 39m 44s
True Declination
52° 39' 36"
Sunlit
Object was in daylight at epoch
Visualization orbit readout
Latitude
Unknown
Longitude
Unknown
Altitude
Unknown
Speed
Unknown
Apparent Right ascension
Unknown
Apparent Declination
Unknown
Sunlit
N/A
Visualization observer readout
Local Sidereal Time
11:14:57
Azimuth
Unknown
Elevation
Unknown
Doppler factor
Unknown
Orbital elements
Apogee altitude
1,069.726 km
Perigee altitude
921.376 km
Semi-major axis
7,373.688 km
Eccentricity
0.01006
Inclination
82.9475°
RAAN
154.2722°
Arg. of periapsis
58.0134°
True anomaly
68.68582°
Mean anomaly
67.6149°
Eccentric anomaly
68.14986°
Mean motion
3.4278 °/min
Orbital period
105.02 mins
BSTAR
0.00088559
Loading maneuver chart data...
Computing Atmospheric mass density...

Documentation

Showing up to 5 results
|